Wind_Speed
6 6 7 8 7 7 7 6 6 6 8 9 10 11 10 10 9 8 9 10 10 10 9 8 9 9 9 8 9 10 10 10 10 9 9 9 8 7 8 9 11 13 13 14 15 16 15 15 14 14 14 13 13 13 12 12 13 16 16 15 14 14 14 14 15 15 15 15 15 15 15 15 15 14 14 13 13 12 12 12 11 11 10 10 10
5 6 8 8 8 8 8 8 9 9 11 12 12 13 12 11 11 10 10 10 11 12 13 12 12 11 11 11 11 12 12 10 9 9 8 8 8 6 5 6 9 12 13 15 17 17 16 15 15 15 15 15 14 14 14 13 13 15 17 17 15 15 15 15 15 15 16 16 16 16 16 16 16 15 15 14 14 14 13 13 12 12 11 11 10
5 5 7 8 9 10 11 12 12 12 14 14 14 14 13 12 12 11 11 10 11 12 13 14 13 12 12 13 14 14 13 11 10 9 9 9 8 8 7 6 7 9 11 14 17 19 18 16 15 15 15 15 15 15 15 15 14 14 15 17 17 16 16 16 16 16 16 17 17 17 17 17 17 17 16 16 15 15 14 14 13 13 12 12 11
6 6 8 8 10 11 12 13 13 14 15 14 14 15 14 13 13 13 12 11 12 12 12 13 12 11 11 12 14 14 13 12 11 9 9 9 9 9 9 8 8 8 10 12 14 17 18 18 17 16 16 16 16 16 16 16 16 15 15 16 17 17 17 17 17 17 17 17 17 18 18 18 18 18 17 17 16 16 15 15 14 14 13 13 12
7 8 7 8 11 12 12 13 13 14 15 14 14 15 14 14 14 14 14 13 14 14 13 12 11 10 10 11 13 13 13 13 12 11 10 10 10 10 10 10 10 10 11 11 13 15 16 17 16 16 17 17 17 16 17 17 18 17 16 16 17 18 18 18 18 18 18 18 18 18 18 18 18 18 18 18 18 17 16 16 16 15 14 14 13
9 9 8 10 12 13 11 13 13 12 13 14 13 14 14 14 14 14 15 15 15 16 15 13 11 11 11 12 12 12 12 12 12 12 12 11 11 12 12 11 11 12 12 12 13 15 15 15 15 17 17 17 17 18 18 19 19 19 18 18 18 18 19 19 20 20 20 20 20 19 19 19 19 19 19 19 19 18 18 17 17 16 16 15 15
11 11 12 13 14 13 11 11 11 10 11 12 12 14 14 14 14 13 14 15 14 15 16 15 13 12 11 11 11 11 12 12 12 12 14 15 15 15 14 14 13 14 14 14 14 15 16 15 16 17 17 15 16 18 19 20 20 20 20 20 19 19 20 20 20 21 21 21 21 21 20 20 20 19 19 19 20 19 19 19 18 18 17 17 17
13 14 13 13 14 13 11 10 11 11 12 13 13 14 13 13 14 13 14 14 13 13 12 12 13 12 11 11 11 12 13 13 13 14 15 16 17 16 14 14 14 14 14 15 16 16 15 16 17 18 18 18 18 19 20 21 21 21 22 22 22 21 21 21 21 22 22 23 23 23 22 22 21 21 21 21 21 20 20 20 20 19 19 18 18
15 14 12 12 11 11 12 12 12 13 13 13 13 12 12 12 12 13 13 12 11 11 10 10 10 11 11 11 11 12 12 12 13 13 14 14 14 14 13 14 14 14 14 15 16 16 15 15 16 17 18 19 19 20 21 22 23 23 23 23 23 23 23 22 22 22 23 24 24 24 24 23 23 23 22 22 22 21 21 21 21 21 20 20 19
14 12 10 9 9 11 14 14 14 14 13 12 11 11 10 10 10 11 12 11 10 9 9 9 10 10 10 10 10 11 11 10 11 11 12 12 12 12 12 13 14 15 15 15 16 16 16 15 16 17 18 19 20 21 22 23 24 24 24 23 24 25 25 23 24 24 23 24 24 25 25 25 24 24 24 23 23 23 22 22 22 22 22 21 21
11 9 7 8 11 13 13 13 13 12 12 12 11 10 10 9 10 10 11 11 9 8 9 10 10 10 10 9 9 10 9 9 9 9 10 10 11 11 12 12 13 13 13 14 15 15 16 17 18 19 19 20 21 22 23 24 25 25 25 24 23 24 25 24 25 26 26 25 25 25 26 26 26 25 25 25 24 24 24 23 23 23 23 22 22
8 7 8 10 13 13 11 11 12 13 13 12 11 10 10 10 10 10 10 10 9 9 10 11 11 11 11 9 8 9 9 9 8 9 9 9 10 9 10 10 10 10 10 11 12 14 15 17 18 19 20 20 21 23 24 23 24 25 26 26 25 24 25 25 27 28 28 27 26 26 26 27 27 27 27 26 26 25 25 25 24 24 24 23 23
8 9 10 12 14 12 11 12 13 14 12 9 8 8 8 9 9 9 9 9 8 8 9 11 11 12 11 10 9 9 9 9 8 7 7 7 7 8 9 10 10 10 10 10 10 10 11 13 15 16 18 19 20 21 21 21 23 25 26 27 26 26 26 26 27 28 30 30 29 28 27 27 28 28 28 27 27 27 26 26 25 25 25 24 24
11 11 11 13 13 12 13 13 14 14 10 7 6 7 7 7 7 7 8 9 8 8 9 10 11 11 12 11 10 8 8 8 6 4 4 6 8 10 11 11 11 11 11 11 10 10 10 11 11 12 14 14 16 17 18 20 23 25 25 26 26 26 27 27 27 28 30 30 30 30 29 28 28 28 28 28 28 28 28 27 27 26 26 25 25
13 13 13 14 14 14 14 14 15 14 10 6 6 6 6 6 6 6 6 7 6 6 8 9 9 10 10 11 11 11 8 5 4 4 7 9 9 10 10 11 11 12 12 12 12 12 13 14 14 14 14 13 14 15 16 16 18 20 22 23 25 26 27 28 28 28 29 30 31 32 31 30 29 28 28 28 29 29 29 29 29 28 27 27 26
14 15 15 15 15 14 15 16 15 13 9 7 7 7 6 5 5 5 5 5 5 5 6 7 8 8 8 9 10 11 7 4 7 9 8 8 7 8 10 11 12 12 13 13 14 15 15 16 16 16 16 16 16 17 17 16 16 16 18 20 23 24 25 27 30 31 30 30 32 33 32 32 31 30 29 28 28 29 30 30 30 30 29 28 27
14 15 15 15 15 16 17 16 13 9 8 8 8 8 7 7 6 6 5 5 5 6 6 6 7 7 7 7 7 7 7 9 13 11 6 6 7 8 10 11 11 12 12 13 13 15 16 16 17 17 17 18 19 20 20 20 19 18 17 18 20 22 24 25 28 31 31 31 31 33 34 33 33 33 31 30 29 29 30 30 31 31 31 30 29
13 13 14 15 16 16 15 12 8 6 7 7 8 9 8 7 7 7 6 6 6 7 6 6 6 7 7 7 6 6 8 11 12 10 9 8 7 7 8 9 10 11 12 13 13 13 14 15 16 17 17 18 19 20 21 22 21 21 20 20 20 21 23 24 25 27 30 30 31 33 35 33 32 33 34 32 31 30 30 30 31 31 31 31 31
13 13 14 14 14 12 9 6 6 7 7 7 8 8 7 7 7 7 6 6 6 7 7 6 7 7 7 7 6 6 8 8 8 9 12 11 7 6 7 8 9 9 10 12 13 13 13 13 14 15 15 16 17 18 20 21 22 22 22 22 22 23 24 25 25 26 27 29 30 32 33 33 32 34 35 35 34 33 32 31 31 31 31 31 31
12 12 12 11 10 8 5 4 5 6 6 6 6 5 5 5 5 5 4 5 5 5 6 6 6 6 6 6 6 5 5 5 6 6 8 10 11 9 8 8 8 8 10 11 12 13 13 13 13 13 14 14 16 17 18 20 21 22 23 23 23 23 24 24 24 25 27 29 30 31 32 32 33 34 35 36 36 36 34 33 32 32 32 31 31
10 9 9 9 8 7 5 4 4 4 5 4 4 3 3 3 3 4 3 3 4 4 5 5 5 5 5 6 6 5 5 4 5 5 5 8 10 11 12 12 10 8 9 10 11 12 13 14 14 14 14 14 14 16 17 19 20 22 24 24 24 24 23 23 22 23 25 28 29 31 32 33 33 35 36 36 36 37 36 35 34 33 33 32 32
11 9 8 8 8 6 5 4 4 5 5 4 3 3 2 2 3 4 4 4 4 3 4 4 5 5 5 6 6 5 5 4 4 5 6 7 9 11 12 14 14 12 11 11 11 12 13 14 14 14 15 15 14 15 16 18 20 22 24 25 25 25 25 24 23 23 24 26 27 30 32 34 33 34 36 36 36 37 37 37 36 35 34 33 32
11 10 9 8 8 7 5 5 5 6 6 5 4 3 3 3 3 4 4 4 4 4 4 4 4 5 5 5 6 6 6 5 5 6 7 9 11 13 12 13 15 15 14 14 13 12 12 12 12 13 13 14 14 15 16 17 19 21 23 23 23 25 26 26 26 25 26 27 28 29 32 33 33 33 34 35 36 36 37 38 37 37 35 34 33
11 11 10 9 9 8 7 6 5 6 6 6 5 4 4 4 4 5 5 5 5 5 5 4 4 4 5 5 6 7 7 7 7 8 9 11 12 14 14 13 15 15 14 13 12 11 11 11 12 13 13 14 14 14 15 17 18 20 22 23 23 24 25 27 27 27 27 28 28 29 30 32 33 33 34 34 35 35 37 38 38 38 37 35 34
11 11 9 9 8 8 7 7 5 6 6 5 5 5 5 5 5 6 6 5 5 5 5 6 5 5 5 6 7 8 8 9 9 10 11 12 14 15 15 14 15 16 14 13 13 13 12 12 13 15 16 17 18 18 18 18 18 19 22 24 25 25 26 27 28 28 28 29 28 28 29 31 32 34 35 35 36 35 36 37 37 38 38 37 36
11 10 9 9 8 8 7 6 6 6 6 5 5 6 6 6 6 6 6 6 6 6 6 7 7 7 7 8 8 9 9 10 11 11 12 13 13 15 16 15 15 16 15 15 15 15 15 15 15 16 18 20 21 22 22 22 22 21 22 23 26 27 29 30 30 30 30 30 30 30 30 31 32 34 35 36 36 36 37 37 37 37 38 37 37
11 10 10 9 8 7 6 6 7 7 6 5 6 6 6 6 6 7 7 7 7 7 7 8 8 9 9 10 10 10 10 11 12 12 13 14 14 14 15 16 17 17 17 17 16 16 17 18 18 18 20 22 22 23 24 24 25 25 25 25 25 26 28 31 32 33 32 32 32 31 31 31 32 34 35 36 37 37 38 37 37 37 38 38 38
11 11 11 9 8 7 7 7 7 6 6 7 7 7 7 7 7 7 8 9 8 8 8 9 10 10 11 12 12 11 12 13 13 13 13 14 15 15 15 15 16 18 18 18 19 18 18 20 22 21 22 24 24 24 25 26 27 28 28 27 27 27 27 29 32 35 35 34 34 34 33 33 33 34 35 36 37 38 38 38 39 39 39 39 39
10 10 10 9 8 7 7 6 6 6 7 8 8 9 8 8 8 8 8 9 9 9 9 10 11 12 13 13 13 13 13 14 14 14 15 15 15 16 15 14 15 17 18 19 21 21 19 21 24 25 25 25 26 26 27 28 29 30 31 30 30 29 29 29 31 34 37 37 35 35 35 34 34 34 35 36 37 37 38 38 40 41 42 41 40
9 8 8 8 6 5 4 5 5 6 7 7 8 8 9 9 9 9 9 10 11 10 10 11 12 13 14 14 14 14 15 15 15 15 16 16 16 16 16 16 15 17 18 21 24 23 22 22 24 26 27 27 28 28 27 28 30 32 33 33 32 32 31 31 31 32 36 38 37 37 37 36 35 35 35 36 36 37 38 39 40 42 43 43 42
9 9 9 7 5 3 3 3 3 3 3 4 4 5 6 7 8 9 10 12 13 13 12 12 12 13 15 15 16 16 16 16 16 17 17 17 17 18 18 17 17 18 18 21 25 27 25 25 26 27 29 30 29 29 29 29 30 33 34 35 35 34 33 33 32 32 33 37 39 38 37 37 36 35 35 35 36 37 37 39 40 42 43 44 43
10 10 9 7 5 5 5 4 3 2 2 2 3 5 6 7 8 9 9 10 14 15 14 14 14 15 16 16 17 17 17 18 18 17 18 18 18 18 19 19 18 19 20 21 26 30 29 28 29 29 29 31 30 30 30 30 31 34 36 37 37 36 34 34 33 32 32 34 38 39 38 38 38 36 35 35 36 37 37 38 39 42 43 44 44
10 9 8 7 6 6 6 5 4 4 4 4 5 7 9 10 11 11 11 10 12 13 15 15 15 16 17 17 18 17 18 20 20 19 19 18 19 19 20 21 20 20 21 23 26 31 32 31 31 31 30 30 30 30 31 32 34 36 37 38 37 35 34 33 33 33 32 32 36 38 39 39 39 39 37 36 36 37 37 38 39 41 43 43 43
10 9 7 7 6 6 6 6 6 6 6 7 7 9 12 13 13 13 13 12 12 13 15 16 17 17 18 19 19 19 18 19 20 20 20 19 19 20 21 22 23 22 22 23 26 30 34 34 33 33 32 31 30 30 30 33 35 37 38 38 37 36 34 33 33 33 32 31 33 36 38 39 40 40 39 38 37 37 37 37 38 40 42 43 43
11 9 8 8 8 8 8 8 8 8 9 10 10 12 13 14 15 15 15 14 15 15 16 17 18 18 19 20 21 20 19 19 20 20 21 21 21 21 21 22 24 24 23 25 27 30 34 36 36 36 35 33 31 30 30 31 34 37 38 39 38 36 35 34 33 33 32 31 32 33 36 38 39 40 41 40 38 37 37 37 37 38 40 42 42
12 10 9 10 10 11 10 10 10 10 11 12 13 14 15 16 17 17 16 16 16 16 16 17 18 19 20 21 21 20 19 20 21 21 21 22 22 21 22 22 23 24 24 26 29 32 34 37 38 37 35 34 32 31 30 31 34 37 39 40 40 39 37 36 35 34 32 31 31 32 33 36 38 39 41 41 40 38 37 36 36 36 38 41 42
12 10 10 11 11 11 10 10 11 12 13 14 16 17 17 18 18 18 17 16 15 15 15 16 18 19 21 22 21 20 20 21 22 22 21 22 22 22 23 24 24 24 25 26 28 31 34 36 37 37 35 33 32 31 30 31 35 38 40 41 42 42 41 39 38 37 35 32 30 31 32 34 36 38 39 40 40 39 37 36 35 35 37 39 41
12 12 12 12 12 11 11 11 12 13 15 16 17 18 19 19 19 17 15 14 13 14 15 17 17 18 20 21 21 20 20 21 22 21 21 21 22 23 24 25 25 25 26 27 29 31 34 36 36 37 36 33 32 31 29 31 36 39 42 44 45 44 44 44 43 40 38 35 32 30 31 33 35 37 38 39 40 40 38 36 35 36 36 37 39
13 14 13 13 12 12 12 13 14 15 16 17 17 18 18 18 17 15 14 13 14 14 16 16 17 18 19 20 21 21 21 21 22 22 21 21 22 23 24 24 25 25 27 29 30 32 33 34 34 35 34 32 32 32 30 31 35 37 40 46 49 48 47 49 48 44 41 39 35 31 30 31 33 35 37 38 39 40 39 38 36 37 37 37 39
15 15 14 13 13 14 14 15 16 17 17 17 17 17 16 15 14 14 13 13 14 15 16 17 18 18 19 19 20 21 21 22 22 22 22 21 22 23 24 25 25 26 28 29 30 30 31 32 32 32 32 32 32 32 31 33 37 38 39 44 49 49 48 50 51 48 45 43 40 33 29 30 32 34 35 37 39 40 40 40 39 38 39 40 40
17 16 15 15 15 16 16 17 17 17 16 16 15 14 13 13 13 14 14 14 15 16 18 19 20 20 19 19 20 21 22 23 23 23 22 21 21 23 24 24 25 27 28 28 28 28 29 30 30 30 31 33 33 32 32 34 38 40 42 43 46 48 48 49 51 49 45 44 43 37 30 28 30 33 34 35 37 39 39 40 40 41 41 42 43
18 17 16 16 17 17 17 18 18 17 16 14 12 11 11 12 13 14 15 16 17 19 20 21 21 20 19 20 20 21 23 25 25 25 24 22 21 22 23 24 24 25 26 26 26 26 27 27 29 30 32 33 33 32 33 37 39 41 43 43 44 47 48 49 52 51 46 42 42 41 34 28 28 32 34 34 36 37 38 40 41 42 42 43 44
18 18 17 18 18 18 18 19 18 17 15 12 11 12 12 13 14 16 17 18 19 19 20 20 19 19 20 21 21 22 23 25 26 26 25 23 22 22 22 23 23 23 23 23 23 24 25 27 29 30 32 34 33 31 33 38 40 40 42 43 44 46 47 47 50 52 49 43 41 42 40 32 29 31 33 34 35 35 37 39 41 42 43 43 43
20 19 19 20 19 19 19 19 18 16 14 13 14 15 15 15 16 17 19 20 20 20 20 20 20 21 21 21 22 22 23 24 25 25 25 24 23 22 23 22 21 21 21 21 22 23 25 27 29 30 31 32 32 31 32 37 39 39 41 43 44 45 46 46 47 50 49 44 41 43 43 36 32 33 34 33 34 35 36 38 39 41 42 43 42
21 20 20 20 20 21 21 20 18 16 14 14 15 17 19 19 19 20 21 23 23 23 22 22 23 23 22 22 22 23 24 24 25 24 24 24 24 23 23 22 21 21 20 21 22 23 25 26 28 29 29 30 31 31 31 34 37 39 41 43 44 45 46 47 49 50 47 42 40 42 44 40 35 35 36 35 34 34 35 37 38 39 41 42 43
22 21 21 21 21 22 22 20 18 16 15 14 16 17 19 21 22 22 23 24 25 25 24 24 24 25 25 24 24 24 24 24 24 23 23 24 24 24 23 23 23 22 21 22 22 22 23 24 26 28 28 28 29 29 30 31 35 38 40 43 45 47 48 49 51 50 45 40 39 40 43 42 38 37 38 36 34 34 34 36 37 38 39 41 42
24 22 21 21 22 23 22 20 18 17 15 14 16 17 19 20 21 22 23 24 25 25 24 24 25 27 27 26 25 25 24 24 23 21 21 23 24 24 24 24 24 24 23 22 21 21 22 24 26 28 27 25 25 28 30 31 34 37 39 41 45 48 50 52 52 50 46 42 38 38 42 42 38 38 39 37 35 34 33 34 35 37 37 39 40
25 23 22 23 23 22 21 20 19 18 16 16 17 19 20 21 21 21 23 23 24 25 25 24 24 26 28 28 26 24 23 22 21 20 20 23 24 25 25 25 26 26 24 22 20 21 22 24 26 26 25 24 24 27 30 31 34 37 39 41 45 48 50 52 52 52 49 44 39 38 41 40 37 39 39 36 35 35 34 33 33 34 35 36 38
25 25 25 24 24 23 22 21 20 19 18 18 18 20 21 22 22 22 23 22 23 24 24 23 23 24 26 26 25 23 22 21 20 19 20 22 24 25 26 27 27 27 24 22 21 22 22 23 24 24 23 22 24 27 30 31 33 37 40 42 47 48 48 51 53 53 50 46 42 39 39 39 37 37 38 36 35 35 35 33 31 31 32 34 36
24 25 26 26 25 24 23 22 21 21 21 20 20 21 22 23 24 24 23 22 22 23 22 20 19 20 22 22 22 22 21 20 21 21 21 22 24 25 26 26 26 26 24 22 22 23 23 22 22 21 21 23 25 28 32 33 32 36 39 42 47 48 48 51 53 53 51 48 43 38 37 38 36 35 35 35 35 37 37 34 31 30 31 32 34
24 26 27 26 25 23 23 22 21 22 23 22 21 21 22 24 26 25 23 21 21 20 18 17 17 19 21 21 20 20 21 22 23 23 22 22 23 24 24 25 25 25 24 23 24 25 24 23 22 22 23 25 26 30 33 33 32 36 39 42 47 48 49 52 52 51 50 48 42 35 35 36 36 35 34 32 32 35 37 36 32 29 30 31 32
Wind_Direction
234 230 237 243 254 263 270 272 272 278 278 284 290 295 299 300 304 300 293 293 297 301 295 293 295 301 309 315 323 326 323 318 312 310 305 301 302 297 282 266 255 252 250 247 240 236 237 234 230 231 235 235 235 235 235 236 235 232 231 231 233 233 233 232 230 229 227 228 230 232 234 235 235 234 235 235 234 235 235 236 237 239 242 244 246
238 237 242 248 260 269 276 276 275 277 279 283 287 291 292 294 298 298 294 295 299 300 295 291 288 289 293 297 303 311 314 312 307 302 299 295 295 297 289 278 262 254 251 247 243 238 235 233 232 232 234 235 237 238 237 238 238 235 233 233 234 235 236 236 235 234 231 228 229 231 234 235 236 237 238 239 237 236 238 237 235 237 241 243 245
243 249 255 260 265 271 275 277 279 280 281 284 285 285 287 291 296 298 297 298 300 300 299 296 292 288 286 290 294 299 303 301 299 294 291 292 289 287 283 282 274 264 258 250 244 239 237 234 232 234 237 238 238 238 238 240 241 239 236 234 236 237 237 239 239 237 236 233 230 230 233 235 237 238 240 241 239 238 239 237 235 237 240 242 245
244 254 260 265 267 268 269 270 273 276 278 281 284 284 282 286 290 289 289 291 295 296 299 301 299 296 289 289 290 293 294 291 295 291 284 287 288 286 282 280 279 278 274 267 258 248 242 238 236 238 241 244 244 241 241 241 242 243 241 236 236 238 240 241 241 241 240 238 236 233 232 234 237 239 241 242 240 240 240 237 236 238 241 244 246
253 260 264 273 272 268 268 269 268 268 275 280 284 284 281 288 292 291 288 286 290 290 291 295 298 298 292 287 286 287 286 284 289 290 285 284 283 282 280 279 278 280 282 282 278 270 258 246 244 247 243 244 249 249 248 244 241 242 245 242 239 239 241 242 243 244 243 240 239 238 235 234 235 238 241 241 241 242 241 239 239 241 244 246 249
261 266 264 268 272 276 279 279 277 273 277 281 283 285 287 292 293 293 291 289 294 292 287 287 290 293 289 283 283 285 284 283 283 285 287 285 283 280 276 276 274 276 279 281 283 283 278 268 263 262 253 248 251 254 255 252 247 243 244 246 244 242 242 244 245 246 246 244 242 240 239 237 236 236 238 240 242 244 244 243 243 245 247 248 250
265 264 262 268 275 285 289 285 288 289 288 289 291 294 295 294 292 290 287 287 293 291 286 284 285 288 290 288 289 291 290 289 287 287 289 289 288 285 281 278 277 278 275 274 277 280 282 280 275 272 270 267 263 259 258 256 255 250 247 246 246 245 243 244 246 246 246 246 246 243 241 240 239 238 238 239 242 245 246 245 246 249 251 251 252
266 259 262 277 283 292 300 296 296 298 296 294 294 295 296 297 297 293 288 287 290 289 284 281 282 288 293 294 295 294 293 294 293 292 292 290 290 288 284 282 279 279 276 274 275 275 275 275 274 273 274 275 271 266 261 257 257 256 253 251 248 247 246 246 246 247 248 247 247 246 244 242 241 241 241 241 242 245 246 247 248 251 254 255 255
268 267 273 285 293 302 303 296 291 292 290 288 291 292 296 298 296 294 292 291 291 289 286 282 287 293 294 295 296 295 294 296 297 298 297 294 292 288 283 282 278 276 275 274 272 269 265 263 265 267 268 271 270 268 265 261 258 256 256 255 253 250 247 249 249 248 249 249 248 248 247 245 243 242 242 243 243 244 246 247 249 252 255 257 258
273 280 288 294 301 301 294 288 285 287 287 288 290 291 294 295 293 293 292 290 287 287 289 289 290 291 292 295 297 297 298 298 300 302 300 296 292 286 281 279 276 273 273 273 272 268 263 257 258 261 264 267 268 268 265 264 262 259 259 259 259 257 253 251 252 251 249 250 249 248 248 247 245 244 243 243 243 244 245 246 248 251 253 256 259
269 273 283 290 291 291 291 289 287 290 294 293 291 288 288 288 288 290 293 295 297 294 292 290 288 289 293 297 296 296 297 298 300 299 295 289 286 286 286 283 280 279 280 281 279 271 264 260 260 264 266 267 269 268 264 264 265 263 262 262 262 264 262 257 254 253 251 251 251 249 248 248 247 245 244 244 244 245 246 247 248 250 253 255 258
249 256 268 277 282 287 291 293 295 299 298 291 287 286 284 284 286 289 294 299 306 303 295 294 293 293 295 295 294 297 297 297 296 293 289 283 282 287 291 293 293 294 293 291 284 272 264 262 262 264 267 268 268 270 268 266 266 264 262 262 262 264 265 261 256 255 253 251 251 252 250 248 248 246 246 245 244 245 246 248 249 251 253 255 258
244 255 263 273 280 285 294 300 305 308 301 286 285 290 288 287 286 287 287 287 292 293 291 293 293 293 293 290 292 296 297 297 292 284 282 280 280 285 290 294 295 296 296 297 294 285 276 270 267 265 266 268 267 270 273 269 264 262 261 262 263 263 264 263 259 256 254 251 251 252 252 250 248 248 247 246 245 245 245 247 249 252 254 256 258
256 259 265 275 282 291 299 303 309 312 306 291 295 300 296 293 288 286 283 279 278 274 280 288 290 295 298 299 301 299 295 295 286 259 265 284 284 285 290 292 292 293 293 295 295 292 291 288 283 277 271 269 266 265 267 266 265 264 263 263 263 262 262 262 260 258 257 254 251 251 252 251 250 249 248 248 248 247 247 247 248 250 253 255 257
260 262 269 276 283 291 294 297 305 309 307 304 310 310 305 299 292 293 290 283 274 262 267 276 285 297 305 310 314 313 312 295 256 255 285 290 284 283 287 290 292 293 293 294 293 291 292 292 290 285 278 271 268 266 266 267 270 268 264 261 260 258 257 257 257 257 257 255 253 251 250 251 250 249 249 248 249 249 249 249 249 250 252 254 256
259 263 270 275 280 282 283 290 298 299 302 312 316 313 307 298 290 292 292 291 282 266 266 271 283 295 301 307 310 312 318 296 282 292 293 282 275 280 285 288 289 290 291 292 293 292 291 290 288 285 281 275 272 272 270 268 269 269 265 261 259 260 259 256 255 255 254 255 255 254 251 251 252 250 250 249 249 249 249 250 251 251 252 254 255
252 256 262 267 270 273 277 284 287 284 293 305 306 301 295 290 290 291 290 294 290 283 282 280 286 290 290 293 297 302 303 300 303 305 293 275 277 282 285 288 291 293 295 294 293 292 291 290 289 287 284 281 278 276 275 272 270 268 266 262 260 262 263 260 256 255 255 255 257 257 253 252 253 253 251 250 251 250 250 250 251 252 253 254 255
250 249 255 260 264 270 274 275 269 265 276 282 285 285 285 287 291 290 292 295 292 291 293 296 297 295 290 282 276 280 288 298 308 307 301 295 285 286 292 294 297 300 300 299 297 294 291 289 287 286 285 284 282 280 278 277 275 272 270 267 264 263 264 263 260 259 259 258 258 259 257 254 255 256 254 252 252 252 251 251 251 251 252 253 254
254 254 259 261 262 266 265 252 243 248 254 258 267 273 276 282 284 283 287 285 285 287 289 294 295 291 289 282 272 270 278 290 301 305 309 309 306 307 306 305 307 307 304 301 301 300 298 296 292 289 287 285 284 281 278 276 275 274 272 269 267 266 265 264 262 261 260 258 259 260 259 256 255 256 256 255 253 252 252 252 252 251 251 252 253
256 260 258 251 252 260 260 244 238 243 248 252 258 260 264 272 273 276 279 276 277 278 278 283 283 281 283 284 281 275 275 281 283 294 304 306 311 317 313 311 312 311 308 304 304 305 304 304 302 299 294 289 285 281 278 274 273 272 269 267 266 265 265 265 265 263 261 258 257 259 258 256 254 253 254 254 253 252 252 252 252 252 251 251 252
263 265 251 238 244 257 261 245 243 259 265 261 253 244 249 259 268 279 283 281 280 272 272 277 277 281 284 282 283 280 280 276 271 279 286 292 308 318 317 314 312 318 322 315 312 310 309 309 309 306 303 298 291 285 281 276 272 271 270 268 266 264 263 263 265 263 260 258 259 259 258 258 257 256 254 253 253 253 252 252 251 251 251 251 251
268 262 250 244 244 249 249 242 264 287 286 274 258 246 246 253 270 287 295 298 294 283 279 278 276 282 285 282 280 274 275 274 269 283 294 295 305 314 320 320 316 322 331 328 325 323 320 318 315 311 307 303 297 289 284 280 277 273 271 270 268 266 262 260 261 259 258 258 259 259 257 257 258 258 257 254 252 252 253 252 251 250 250 250 251
260 257 256 248 240 243 243 247 273 291 289 277 266 259 254 258 274 289 301 305 300 295 292 286 278 279 283 283 282 279 279 279 279 286 296 300 303 308 316 319 315 318 325 327 332 334 333 330 326 325 322 316 310 301 292 286 282 278 274 272 269 267 264 261 259 257 256 257 259 259 257 256 255 254 254 253 252 251 252 253 252 250 249 249 251
251 257 259 245 239 243 243 249 269 281 277 266 259 254 252 258 276 290 303 308 303 300 295 287 277 271 275 278 280 283 282 279 279 282 291 299 301 305 312 313 311 314 321 326 332 338 342 343 343 345 344 340 335 326 314 301 291 286 281 275 271 267 263 262 260 257 255 254 256 257 257 256 255 253 251 251 251 250 250 251 252 250 248 247 249
252 256 252 241 239 239 241 248 261 265 260 253 251 249 247 254 270 282 291 298 300 298 290 282 274 265 266 272 276 280 281 278 277 278 286 295 299 302 306 307 308 313 320 325 330 334 339 344 350 351 349 349 347 343 338 327 314 303 292 283 275 270 266 262 259 257 254 252 252 253 254 255 255 254 252 250 249 249 250 251 251 249 246 245 246
252 252 242 236 236 237 241 245 247 248 245 243 246 248 250 254 261 266 269 275 282 283 280 275 271 268 268 271 274 276 277 276 276 281 288 294 297 298 300 302 306 311 316 319 326 332 333 336 344 348 347 347 348 345 342 337 330 322 310 296 285 277 272 267 262 258 255 252 252 251 251 252 253 253 252 250 248 248 249 251 250 247 244 244 244
244 242 235 231 233 238 239 235 234 239 246 250 251 250 250 250 249 251 253 257 263 267 269 268 268 270 269 268 272 275 274 273 275 284 292 296 295 293 296 303 306 309 312 314 317 325 328 328 333 341 343 342 342 342 340 338 335 329 322 312 301 289 280 273 266 262 259 255 252 252 251 250 250 251 251 250 248 247 247 248 248 245 243 243 243
235 235 232 227 228 229 226 227 232 243 260 266 264 259 253 249 245 245 247 253 259 265 267 268 267 267 266 267 271 274 273 271 276 286 293 295 293 290 292 299 303 307 312 313 314 318 324 327 327 332 337 336 334 335 336 337 336 332 327 321 313 303 293 283 273 266 262 258 253 250 250 249 249 249 249 249 248 247 246 245 244 243 242 243 243
231 228 223 216 213 214 217 229 243 258 270 274 275 272 268 266 262 259 259 261 266 268 270 271 269 266 265 267 272 275 273 272 278 286 292 293 289 287 289 291 295 303 308 309 311 315 321 326 327 327 330 331 329 330 332 334 336 334 331 327 321 312 303 294 284 272 264 260 256 251 248 248 248 248 247 247 247 247 246 245 243 242 243 244 244
219 208 200 191 188 200 220 241 257 267 274 277 279 279 278 280 279 278 277 274 274 274 273 274 273 269 267 268 272 275 275 275 278 284 289 291 288 284 283 285 288 296 302 304 306 310 316 322 323 324 326 327 326 327 328 331 333 333 331 329 326 321 311 302 294 284 270 261 258 254 249 247 247 247 246 245 245 246 246 245 244 242 242 243 243
201 186 176 169 167 182 206 223 236 253 272 280 287 290 292 293 292 289 286 280 279 278 276 277 277 274 271 271 274 276 276 277 279 283 286 287 286 283 280 281 286 292 297 300 301 304 312 318 318 320 323 323 324 325 324 326 329 331 330 328 326 323 317 308 301 294 282 267 259 256 252 248 246 246 245 244 243 244 245 246 245 243 242 241 240
189 175 168 167 173 178 186 197 203 227 268 290 302 307 308 309 309 306 300 289 284 282 280 280 280 279 278 278 278 279 280 279 279 283 285 285 283 281 278 279 282 288 292 294 296 300 306 312 314 316 320 321 322 322 322 323 327 328 327 327 325 321 317 312 305 300 292 276 262 256 254 250 246 244 244 243 243 243 244 246 246 244 241 239 239
187 179 176 181 188 190 196 209 225 248 269 288 300 304 306 306 305 305 306 303 297 293 287 282 282 283 285 285 284 282 281 279 279 280 283 285 284 281 277 276 277 282 286 288 293 298 302 306 309 313 318 319 319 320 320 321 325 327 325 325 324 320 316 313 308 303 299 287 269 258 254 252 249 245 243 243 244 244 244 245 246 244 240 238 238
194 192 195 202 208 219 225 233 245 256 268 281 289 293 295 294 292 293 295 299 304 305 298 291 287 286 286 287 286 285 281 278 279 279 280 283 284 283 279 275 275 278 281 285 290 296 300 303 306 310 315 317 316 318 319 320 324 327 326 325 324 321 316 315 311 305 301 295 280 263 255 253 251 248 244 243 244 245 244 244 244 242 239 237 237
204 204 211 219 227 237 244 249 253 258 267 273 277 281 284 286 286 286 288 292 299 305 303 297 293 288 286 286 286 287 284 281 281 282 281 282 283 283 281 279 278 278 279 284 288 294 299 302 303 307 311 313 313 315 317 320 324 325 326 327 326 322 318 316 314 309 303 298 288 272 259 254 253 250 246 244 244 243 243 242 242 240 237 235 235
211 213 221 231 237 245 254 260 262 266 269 270 274 279 282 284 285 285 285 288 295 300 299 295 293 290 286 285 286 287 285 283 284 284 283 284 284 284 283 283 283 283 284 286 288 293 297 299 301 304 308 309 311 314 316 319 322 324 325 327 326 324 320 317 316 314 308 300 291 279 266 256 254 252 249 246 243 241 241 241 240 238 236 235 235
218 224 230 235 240 250 261 268 272 275 275 276 279 283 284 283 284 286 285 285 291 294 294 294 294 292 289 286 286 286 285 284 285 285 285 285 285 284 283 284 286 288 290 290 290 291 293 294 298 302 305 307 309 312 316 319 321 322 324 325 325 324 322 319 316 315 313 306 294 284 272 261 256 253 250 247 243 239 238 239 238 237 236 235 235
219 224 227 233 241 252 263 268 273 277 279 281 282 283 283 284 287 287 284 284 288 289 290 293 295 295 292 288 286 284 284 284 285 285 287 287 285 283 282 283 286 288 290 290 290 290 291 293 296 300 303 306 308 310 314 318 319 321 323 324 324 324 323 320 316 313 313 311 301 288 277 267 259 254 251 247 243 239 237 238 237 235 234 234 234
217 221 223 233 245 254 260 265 272 278 279 279 280 281 282 284 286 285 283 285 286 286 289 293 296 295 292 288 285 282 282 283 284 287 289 289 287 283 281 281 283 285 287 287 288 290 292 293 295 298 302 305 306 308 312 317 317 319 323 324 322 322 323 321 317 313 311 312 307 293 278 270 263 257 252 247 243 240 239 238 237 234 232 232 232
218 221 226 238 250 255 259 267 274 276 275 274 276 278 278 279 281 283 284 283 283 284 288 292 295 294 290 287 283 279 279 281 284 288 290 290 288 286 284 282 281 282 284 285 287 290 292 293 295 298 301 303 304 306 311 316 315 317 323 323 319 318 319 319 317 313 310 310 309 300 282 270 265 260 255 249 243 241 240 239 237 234 231 230 231
219 224 232 245 253 256 262 270 273 272 270 271 274 275 274 276 282 285 285 284 285 287 290 293 295 293 289 287 282 279 278 280 284 287 289 288 286 286 287 286 283 282 282 283 285 288 291 294 296 298 300 300 302 306 311 313 312 315 321 321 316 315 316 315 313 312 310 308 309 305 290 275 268 263 259 253 245 241 240 238 236 234 231 230 231
220 226 237 247 253 258 264 267 267 265 266 268 272 276 279 283 287 290 291 292 292 293 294 296 295 293 289 286 282 279 278 280 283 285 287 286 282 282 285 287 287 287 285 285 287 290 293 293 294 297 298 298 302 307 310 311 310 314 319 319 314 314 315 313 311 311 310 307 307 305 296 282 273 267 262 256 249 242 240 238 236 234 232 231 231
222 229 241 249 254 260 261 261 260 261 265 271 276 280 283 287 293 297 298 297 295 295 296 296 295 294 293 288 286 284 282 282 282 282 283 282 279 278 280 284 288 289 288 289 291 292 293 293 294 296 296 297 302 307 309 312 312 314 318 317 313 313 313 311 309 308 308 306 303 301 295 285 276 269 263 258 252 245 242 240 236 234 233 232 232
226 233 245 250 256 260 257 255 257 260 270 281 284 283 282 285 292 296 297 297 295 293 293 292 292 294 294 292 291 290 289 288 284 280 278 278 276 276 278 283 287 288 288 289 290 291 292 293 294 295 295 298 302 305 310 314 313 315 318 317 315 314 311 308 305 303 303 303 300 296 292 285 276 269 261 255 252 247 245 242 238 235 234 233 234
231 239 246 250 257 258 254 254 258 264 275 284 287 286 284 286 289 290 292 293 294 294 293 291 290 290 291 292 291 291 292 289 284 278 274 272 273 275 277 281 286 287 288 288 288 290 293 293 293 293 296 299 300 305 312 314 312 314 318 318 316 314 310 308 305 302 301 299 294 289 287 283 277 269 260 253 249 248 246 244 241 237 235 234 234
236 240 245 251 256 256 254 258 262 266 275 285 292 293 292 291 289 287 287 290 292 294 294 293 291 288 287 288 290 294 294 289 283 277 271 270 271 273 276 280 284 287 289 289 290 293 294 293 292 293 297 300 300 306 313 311 309 313 318 318 317 314 312 310 309 305 301 296 290 284 280 278 276 271 261 251 247 247 245 244 243 239 237 235 235
239 242 248 253 256 256 258 263 266 268 275 288 299 301 300 297 290 285 286 289 292 294 294 292 290 287 284 283 288 295 295 290 284 277 272 270 270 272 275 278 282 286 291 295 297 298 296 295 293 294 296 298 301 308 312 308 307 314 319 320 319 318 316 313 311 307 301 296 292 282 275 272 271 268 260 250 246 247 244 243 243 240 238 237 235
244 248 252 254 258 261 264 268 270 272 279 290 299 301 302 300 293 288 288 290 293 294 292 290 287 284 283 284 290 296 294 289 285 279 273 270 269 272 275 278 282 287 294 302 302 298 296 294 294 293 293 296 303 309 309 303 307 318 324 322 323 323 318 313 309 306 301 298 293 282 273 269 266 264 260 249 244 245 243 241 241 238 236 236 234
249 254 256 258 261 263 266 269 271 274 280 287 292 295 299 300 297 293 291 291 295 295 292 288 284 283 284 288 293 294 289 287 286 281 276 272 271 273 275 278 285 290 299 306 300 296 296 295 295 293 290 296 303 306 304 300 308 324 327 323 325 325 318 311 308 305 301 297 291 281 272 267 263 262 259 250 243 243 242 241 240 236 233 233 232
256 261 261 262 262 264 268 270 272 278 282 284 287 291 296 297 297 295 293 293 298 300 295 288 283 283 285 289 291 290 287 287 287 284 282 278 274 273 275 280 289 296 303 305 299 298 299 298 297 292 288 295 301 303 302 299 310 328 329 325 328 325 316 312 309 305 301 295 286 277 268 263 260 259 256 251 245 242 241 241 242 238 232 229 228
262 264 263 261 261 263 266 268 273 283 287 285 284 288 293 296 295 294 292 293 300 303 296 288 286 286 288 291 291 288 287 289 289 288 287 282 276 276 279 285 293 299 303 304 303 304 303 301 300 296 293 297 300 302 304 302 311 329 333 331 331 326 317 314 311 305 300 293 285 275 263 257 255 253 250 247 244 242 240 240 242 240 232 228 227
Height
1577 1577 1577 1577 1577 1577 1577 1577 1576 1576 1575 1575 1574 1574 1573 1573 1573 1573 1573 1572 1572 1571 1571 1571 1570 1570 1569 1569 1568 1568 1567 1567 1566 1566 1566 1566 1566 1565 1565 1565 1564 1564 1564 1564 1564 1565 1565 1565 1565 1566 1566 1567 1568 1569 1569 1570 1570 1571 1571 1572 1572 1573 1574 1575 1576 1576 1577 1578 1579 1580 1581 1581 1582 1583 1583 1584 1585 1585 1586 1587 1587 1588 1589 1589 1590
1576 1576 1576 1576 1577 1577 1577 1576 1576 1575 1575 1574 1573 1572 1572 1572 1572 1572 1571 1571 1570 1570 1570 1570 1569 1569 1568 1568 1567 1567 1566 1566 1566 1566 1565 1565 1565 1565 1565 1564 1564 1563 1563 1563 1563 1563 1563 1563 1563 1563 1564 1565 1566 1567 1567 1568 1569 1569 1570 1570 1571 1572 1572 1573 1574 1575 1576 1577 1577 1578 1579 1580 1581 1582 1582 1583 1584 1584 1585 1586 1586 1587 1588 1588 1589
1575 1575 1576 1576 1576 1576 1576 1576 1575 1575 1574 1573 1572 1571 1571 1571 1570 1570 1569 1569 1569 1569 1568 1568 1568 1567 1567 1566 1566 1565 1565 1565 1564 1564 1564 1564 1564 1564 1564 1563 1563 1562 1562 1562 1562 1561 1561 1561 1561 1561 1562 1563 1564 1565 1565 1566 1567 1568 1568 1569 1569 1570 1571 1572 1573 1574 1574 1575 1576 1577 1577 1578 1579 1580 1581 1582 1583 1583 1584 1585 1585 1586 1587 1587 1588
1574 1575 1575 1575 1575 1574 1574 1574 1573 1573 1572 1571 1570 1570 1569 1569 1568 1568 1567 1567 1567 1567 1567 1567 1566 1566 1565 1565 1565 1564 1564 1563 1563 1563 1563 1563 1563 1563 1563 1562 1562 1561 1561 1561 1560 1560 1561 1561 1560 1560 1561 1561 1562 1563 1564 1564 1565 1566 1567 1567 1568 1568 1569 1570 1571 1572 1573 1574 1574 1575 1576 1577 1578 1579 1580 1581 1582 1583 1583 1584 1585 1585 1586 1586 1587
1573 1573 1573 1573 1573 1573 1573 1571 1571 1571 1570 1569 1569 1568 1568 1567 1567 1567 1566 1565 1566 1566 1565 1565 1565 1564 1564 1563 1563 1563 1562 1562 1562 1561 1561 1561 1561 1561 1561 1561 1560 1560 1559 1559 1559 1560 1560 1560 1559 1559 1560 1560 1561 1561 1562 1563 1563 1564 1565 1566 1566 1567 1567 1568 1569 1570 1571 1572 1573 1573 1574 1575 1576 1577 1578 1579 1580 1581 1582 1583 1584 1584 1585 1585 1586
1572 1572 1572 1572 1571 1572 1572 1570 1570 1569 1569 1568 1567 1567 1566 1566 1566 1565 1565 1564 1564 1564 1564 1564 1563 1563 1563 1562 1562 1562 1561 1561 1560 1560 1560 1560 1559 1559 1559 1559 1558 1558 1558 1557 1557 1558 1558 1558 1557 1558 1558 1559 1559 1559 1560 1561 1561 1562 1563 1564 1564 1565 1565 1566 1567 1568 1569 1570 1571 1572 1573 1573 1574 1575 1576 1578 1579 1580 1581 1582 1583 1583 1584 1584 1585
1571 1571 1571 1570 1569 1570 1570 1569 1568 1568 1567 1567 1566 1565 1564 1564 1564 1564 1563 1563 1563 1562 1562 1562 1562 1562 1561 1561 1561 1560 1560 1559 1559 1559 1558 1558 1558 1557 1557 1557 1557 1556 1556 1556 1555 1556 1556 1555 1555 1555 1555 1556 1557 1557 1558 1559 1559 1560 1561 1562 1562 1563 1564 1564 1565 1566 1567 1568 1569 1570 1571 1571 1572 1573 1574 1576 1577 1578 1579 1580 1581 1582 1583 1583 1584
1570 1569 1568 1569 1568 1568 1568 1568 1567 1566 1566 1565 1564 1564 1563 1563 1562 1562 1561 1561 1561 1561 1560 1561 1561 1560 1560 1560 1559 1559 1559 1558 1558 1557 1557 1556 1556 1556 1556 1555 1555 1555 1554 1554 1553 1553 1553 1553 1553 1553 1553 1554 1555 1556 1557 1557 1557 1558 1559 1559 1560 1561 1562 1562 1563 1564 1565 1566 1567 1567 1568 1569 1570 1571 1572 1573 1575 1576 1577 1579 1580 1581 1581 1582 1582
1568 1568 1567 1567 1567 1566 1566 1566 1566 1565 1565 1564 1563 1563 1562 1562 1561 1560 1560 1560 1559 1559 1559 1559 1559 1559 1559 1558 1558 1557 1557 1557 1556 1556 1555 1554 1554 1554 1554 1553 1553 1553 1552 1552 1551 1551 1551 1551 1551 1552 1552 1552 1553 1554 1555 1555 1555 1556 1556 1558 1558 1559 1560 1561 1562 1562 1563 1564 1564 1565 1566 1567 1568 1569 1570 1571 1572 1574 1575 1576 1578 1579 1580 1580 1581
1566 1566 1566 1566 1566 1566 1566 1565 1565 1564 1564 1563 1562 1561 1561 1561 1560 1559 1559 1559 1559 1558 1558 1558 1558 1557 1557 1557 1556 1556 1556 1555 1555 1554 1553 1553 1552 1552 1552 1551 1551 1550 1550 1550 1550 1549 1549 1549 1549 1550 1550 1550 1551 1552 1553 1553 1553 1554 1555 1556 1557 1558 1558 1559 1561 1561 1562 1562 1563 1563 1564 1565 1566 1567 1568 1569 1570 1571 1572 1574 1575 1576 1577 1578 1579
1564 1565 1565 1565 1565 1565 1565 1564 1563 1563 1562 1562 1561 1560 1560 1560 1559 1559 1559 1558 1558 1558 1558 1557 1557 1556 1556 1555 1555 1554 1554 1554 1553 1553 1552 1551 1551 1550 1550 1550 1549 1549 1549 1548 1548 1548 1548 1548 1548 1548 1549 1549 1550 1550 1550 1551 1552 1553 1554 1554 1556 1557 1557 1557 1559 1560 1560 1561 1561 1561 1562 1562 1563 1564 1565 1566 1567 1568 1570 1571 1573 1574 1575 1576 1577
1564 1564 1564 1564 1564 1563 1563 1562 1562 1561 1561 1560 1560 1559 1559 1559 1559 1558 1558 1558 1558 1557 1557 1556 1556 1555 1555 1554 1553 1553 1553 1552 1552 1551 1551 1550 1550 1549 1549 1548 1548 1548 1547 1547 1547 1546 1546 1546 1546 1546 1547 1547 1548 1548 1548 1549 1550 1551 1551 1552 1553 1555 1555 1555 1556 1558 1559 1559 1559 1559 1559 1560 1560 1561 1562 1563 1564 1565 1567 1568 1570 1571 1573 1574 1575
1562 1562 1562 1562 1561 1561 1561 1561 1560 1560 1559 1559 1559 1558 1558 1558 1558 1557 1557 1557 1557 1556 1555 1555 1554 1554 1553 1552 1552 1552 1551 1551 1550 1550 1549 1549 1549 1548 1548 1547 1547 1547 1546 1546 1545 1545 1545 1544 1544 1544 1544 1545 1546 1546 1547 1547 1548 1548 1548 1549 1551 1552 1552 1552 1554 1555 1556 1557 1557 1557 1557 1557 1558 1558 1559 1560 1561 1563 1564 1565 1567 1569 1570 1571 1573
1561 1561 1560 1560 1559 1560 1560 1559 1559 1558 1558 1557 1557 1557 1557 1557 1556 1556 1556 1555 1555 1554 1554 1553 1553 1552 1551 1551 1551 1551 1550 1550 1549 1549 1549 1548 1548 1547 1547 1546 1546 1546 1545 1545 1544 1544 1544 1544 1543 1543 1543 1543 1544 1544 1545 1545 1545 1545 1546 1547 1548 1549 1549 1549 1550 1551 1553 1554 1555 1555 1555 1555 1555 1556 1556 1557 1558 1560 1561 1562 1564 1565 1567 1568 1570
1559 1559 1559 1558 1558 1558 1558 1558 1557 1557 1556 1556 1556 1556 1556 1555 1555 1554 1554 1553 1553 1553 1552 1552 1551 1551 1550 1549 1549 1549 1549 1548 1548 1548 1548 1547 1547 1546 1546 1545 1545 1545 1544 1544 1543 1543 1543 1542 1542 1542 1542 1542 1542 1542 1542 1542 1543 1543 1543 1544 1544 1545 1546 1547 1547 1547 1549 1551 1551 1552 1553 1553 1553 1553 1554 1554 1555 1557 1558 1559 1561 1562 1564 1565 1567
1558 1558 1557 1557 1556 1556 1556 1556 1556 1556 1555 1555 1555 1555 1555 1554 1554 1553 1553 1552 1551 1551 1551 1550 1550 1550 1549 1549 1548 1548 1548 1548 1547 1547 1547 1546 1546 1546 1545 1544 1544 1544 1543 1543 1542 1542 1541 1541 1541 1540 1540 1540 1540 1540 1540 1540 1540 1540 1541 1541 1541 1541 1542 1543 1543 1544 1545 1546 1547 1549 1550 1550 1550 1551 1551 1552 1552 1553 1555 1556 1558 1559 1561 1562 1564
1556 1556 1556 1556 1555 1555 1555 1554 1554 1554 1554 1554 1554 1554 1554 1553 1553 1552 1552 1551 1551 1550 1550 1550 1549 1549 1549 1548 1548 1548 1547 1547 1546 1546 1546 1546 1546 1545 1544 1543 1543 1543 1542 1541 1541 1540 1540 1539 1538 1538 1538 1538 1538 1538 1538 1538 1538 1538 1538 1538 1538 1538 1538 1539 1540 1540 1541 1542 1544 1545 1546 1547 1548 1548 1549 1549 1550 1551 1552 1553 1554 1556 1557 1559 1561
1554 1554 1554 1554 1554 1553 1553 1553 1553 1553 1553 1553 1553 1553 1553 1552 1552 1552 1551 1551 1550 1550 1549 1549 1549 1548 1548 1548 1548 1547 1547 1547 1546 1545 1544 1545 1545 1544 1544 1543 1542 1542 1541 1540 1539 1539 1538 1537 1536 1536 1535 1535 1535 1535 1535 1535 1535 1535 1535 1536 1536 1535 1535 1536 1536 1537 1537 1539 1540 1541 1542 1543 1545 1546 1546 1547 1547 1547 1548 1549 1551 1552 1554 1555 1557
1552 1552 1552 1552 1552 1552 1552 1552 1552 1553 1552 1552 1552 1551 1551 1551 1551 1551 1550 1550 1549 1549 1548 1548 1548 1547 1547 1547 1547 1547 1547 1546 1546 1545 1543 1543 1543 1543 1543 1542 1542 1541 1540 1539 1538 1537 1536 1536 1535 1534 1534 1533 1533 1533 1533 1532 1532 1532 1532 1533 1533 1533 1533 1533 1533 1534 1534 1535 1536 1538 1540 1540 1541 1542 1543 1543 1544 1544 1545 1546 1547 1548 1550 1551 1553
1551 1551 1550 1550 1550 1550 1551 1551 1551 1552 1551 1551 1551 1550 1550 1550 1550 1550 1550 1549 1548 1548 1548 1547 1547 1546 1546 1546 1546 1546 1546 1546 1545 1545 1544 1542 1542 1541 1541 1541 1541 1540 1539 1538 1537 1536 1535 1534 1533 1532 1532 1531 1531 1530 1530 1530 1529 1529 1529 1529 1530 1530 1530 1530 1530 1531 1532 1532 1533 1535 1536 1536 1537 1537 1538 1539 1540 1541 1542 1543 1544 1545 1546 1548 1549
1550 1549 1549 1549 1549 1549 1550 1550 1550 1551 1550 1550 1550 1550 1549 1549 1550 1549 1549 1549 1548 1547 1547 1547 1546 1546 1546 1545 1545 1545 1545 1545 1544 1544 1543 1543 1541 1540 1540 1539 1539 1539 1538 1537 1536 1535 1534 1533 1532 1531 1530 1529 1529 1528 1527 1527 1526 1526 1526 1526 1526 1526 1526 1526 1527 1528 1529 1529 1530 1531 1531 1532 1533 1533 1534 1535 1536 1537 1538 1539 1540 1542 1543 1544 1545
1548 1548 1548 1548 1548 1549 1549 1549 1550 1550 1549 1549 1549 1549 1548 1548 1549 1549 1548 1548 1547 1547 1547 1546 1546 1546 1545 1545 1545 1544 1544 1544 1544 1543 1542 1542 1541 1540 1539 1538 1537 1537 1537 1536 1535 1534 1533 1532 1530 1529 1528 1527 1526 1526 1525 1524 1524 1523 1523 1522 1522 1522 1523 1523 1523 1525 1525 1525 1526 1526 1527 1527 1528 1529 1529 1530 1532 1533 1534 1536 1537 1538 1539 1540 1541
1547 1547 1547 1547 1547 1548 1548 1548 1549 1549 1548 1548 1548 1548 1547 1548 1548 1548 1548 1547 1547 1546 1546 1546 1545 1545 1545 1545 1544 1544 1544 1543 1543 1542 1542 1541 1539 1538 1538 1537 1536 1535 1535 1534 1534 1533 1532 1531 1529 1528 1527 1526 1525 1524 1523 1522 1521 1521 1520 1519 1519 1519 1519 1519 1520 1520 1521 1521 1522 1522 1523 1523 1523 1524 1524 1526 1527 1528 1530 1532 1533 1534 1535 1537 1538
1546 1546 1546 1546 1546 1547 1547 1547 1548 1548 1548 1548 1547 1547 1547 1547 1547 1547 1547 1547 1546 1546 1545 1545 1545 1544 1544 1544 1544 1543 1543 1542 1542 1541 1541 1540 1538 1537 1536 1536 1535 1534 1533 1533 1532 1532 1531 1529 1528 1527 1525 1524 1523 1522 1521 1520 1519 1518 1517 1516 1516 1515 1515 1515 1515 1516 1516 1517 1517 1518 1518 1518 1518 1519 1519 1520 1523 1524 1526 1527 1529 1530 1532 1533 1534
1545 1545 1545 1545 1545 1546 1546 1546 1547 1547 1547 1547 1547 1546 1546 1546 1546 1546 1546 1546 1546 1545 1544 1544 1543 1543 1543 1543 1542 1542 1542 1541 1540 1540 1539 1539 1537 1536 1535 1535 1533 1532 1532 1531 1530 1530 1529 1528 1527 1525 1524 1523 1522 1520 1519 1518 1517 1516 1514 1513 1513 1512 1511 1511 1511 1511 1512 1512 1512 1512 1513 1513 1513 1513 1514 1515 1517 1519 1521 1523 1524 1526 1527 1529 1530
1543 1543 1544 1544 1544 1545 1545 1545 1546 1546 1546 1546 1546 1546 1545 1545 1545 1545 1545 1545 1545 1544 1544 1543 1543 1542 1542 1541 1541 1541 1540 1540 1539 1539 1538 1538 1537 1535 1534 1533 1532 1531 1530 1529 1528 1528 1527 1526 1525 1524 1523 1521 1520 1519 1517 1516 1514 1513 1512 1510 1509 1509 1508 1507 1507 1507 1507 1507 1508 1508 1508 1508 1508 1509 1509 1511 1512 1514 1516 1518 1520 1521 1523 1524 1526
1542 1542 1542 1543 1543 1543 1544 1544 1545 1545 1545 1545 1545 1545 1545 1544 1544 1544 1544 1544 1544 1543 1543 1542 1542 1542 1541 1541 1540 1540 1540 1539 1538 1538 1537 1536 1536 1535 1533 1532 1530 1529 1528 1528 1527 1526 1525 1523 1523 1522 1521 1519 1518 1517 1515 1514 1512 1510 1509 1507 1505 1505 1504 1503 1503 1502 1502 1502 1503 1503 1503 1503 1504 1504 1505 1506 1507 1509 1511 1512 1514 1516 1518 1520 1521
1541 1541 1541 1542 1542 1542 1543 1543 1543 1544 1544 1544 1544 1544 1544 1543 1543 1543 1543 1543 1543 1542 1542 1541 1541 1541 1540 1540 1539 1539 1539 1538 1538 1537 1536 1535 1534 1534 1533 1531 1529 1527 1526 1525 1525 1524 1523 1521 1520 1519 1519 1517 1516 1515 1513 1511 1510 1507 1506 1504 1502 1501 1500 1499 1498 1497 1497 1497 1498 1498 1498 1499 1499 1500 1500 1501 1503 1504 1505 1507 1509 1511 1513 1515 1517
1541 1541 1541 1541 1541 1541 1541 1542 1542 1542 1542 1542 1543 1542 1542 1542 1542 1542 1542 1541 1541 1541 1541 1540 1540 1540 1539 1538 1538 1537 1537 1537 1536 1536 1535 1534 1533 1532 1531 1530 1529 1527 1524 1522 1521 1522 1521 1520 1518 1517 1516 1515 1513 1512 1510 1508 1507 1505 1502 1501 1499 1497 1496 1494 1493 1492 1492 1492 1493 1493 1493 1494 1494 1494 1495 1496 1498 1499 1500 1502 1504 1506 1508 1510 1512
1539 1540 1540 1540 1540 1540 1540 1540 1540 1540 1541 1541 1541 1541 1540 1540 1540 1540 1540 1540 1539 1539 1539 1539 1538 1538 1537 1537 1536 1535 1535 1535 1534 1534 1533 1533 1532 1531 1530 1529 1528 1526 1524 1521 1519 1518 1519 1518 1517 1515 1513 1512 1511 1509 1508 1506 1504 1502 1500 1498 1496 1494 1491 1490 1489 1488 1487 1487 1487 1488 1488 1488 1489 1489 1490 1491 1492 1494 1495 1497 1498 1501 1503 1505 1507
1538 1538 1538 1538 1538 1538 1538 1538 1539 1539 1539 1539 1539 1539 1539 1539 1538 1538 1538 1538 1538 1538 1538 1537 1537 1536 1535 1535 1534 1534 1533 1533 1532 1532 1532 1531 1530 1530 1529 1528 1526 1525 1523 1521 1517 1515 1516 1516 1515 1514 1511 1509 1508 1506 1505 1504 1502 1499 1497 1495 1493 1491 1488 1486 1484 1483 1482 1481 1482 1482 1483 1483 1484 1484 1485 1486 1487 1488 1489 1491 1493 1495 1497 1500 1502
1537 1537 1537 1537 1537 1537 1537 1538 1538 1538 1538 1538 1538 1538 1538 1537 1537 1537 1537 1537 1536 1536 1536 1536 1535 1535 1534 1533 1533 1532 1532 1531 1530 1530 1530 1529 1529 1528 1527 1526 1525 1523 1522 1520 1516 1513 1514 1513 1512 1511 1510 1507 1505 1504 1501 1500 1499 1497 1494 1492 1490 1487 1485 1482 1480 1479 1477 1476 1476 1477 1478 1478 1479 1479 1480 1481 1482 1483 1484 1485 1487 1489 1491 1494 1497
1536 1536 1536 1536 1536 1536 1537 1537 1537 1537 1537 1537 1537 1537 1536 1536 1536 1536 1535 1535 1534 1534 1534 1534 1534 1533 1533 1532 1531 1531 1530 1529 1529 1528 1528 1527 1526 1526 1525 1524 1523 1522 1520 1518 1515 1511 1510 1511 1509 1508 1508 1505 1503 1501 1499 1496 1495 1493 1491 1489 1487 1484 1482 1479 1476 1474 1473 1472 1471 1471 1472 1473 1474 1475 1475 1476 1477 1478 1479 1480 1482 1484 1486 1489 1491
1535 1535 1535 1535 1535 1535 1535 1535 1535 1535 1535 1535 1535 1535 1535 1535 1534 1534 1534 1533 1532 1532 1532 1532 1532 1532 1531 1530 1530 1529 1529 1527 1527 1526 1526 1525 1524 1523 1523 1522 1521 1520 1518 1516 1513 1510 1507 1507 1506 1505 1504 1503 1500 1499 1497 1494 1491 1489 1487 1485 1483 1480 1478 1476 1473 1470 1469 1468 1466 1466 1467 1467 1468 1469 1470 1471 1472 1473 1474 1475 1476 1478 1481 1483 1486
1532 1533 1534 1535 1534 1534 1534 1534 1534 1534 1534 1534 1534 1534 1533 1533 1533 1532 1532 1531 1530 1530 1530 1530 1530 1529 1529 1528 1528 1527 1527 1525 1525 1524 1523 1523 1522 1521 1520 1519 1518 1517 1517 1515 1512 1509 1506 1504 1503 1502 1501 1500 1498 1496 1495 1492 1489 1486 1483 1481 1479 1477 1474 1472 1470 1467 1465 1464 1462 1461 1461 1462 1463 1464 1465 1466 1467 1468 1469 1470 1471 1473 1475 1478 1481
1530 1531 1532 1533 1533 1532 1532 1532 1532 1532 1532 1532 1532 1531 1531 1531 1531 1530 1530 1529 1528 1528 1528 1527 1527 1527 1527 1526 1526 1526 1525 1523 1522 1522 1521 1520 1519 1518 1517 1517 1516 1515 1514 1513 1510 1508 1505 1502 1500 1499 1498 1496 1494 1493 1491 1489 1486 1484 1481 1478 1475 1473 1471 1469 1466 1464 1462 1460 1458 1457 1457 1457 1457 1458 1459 1460 1461 1462 1463 1465 1466 1468 1470 1473 1475
1529 1530 1530 1531 1531 1530 1530 1530 1530 1530 1530 1530 1529 1529 1529 1529 1529 1529 1528 1527 1526 1526 1525 1525 1525 1525 1524 1524 1524 1523 1523 1521 1520 1519 1518 1517 1517 1516 1515 1514 1513 1512 1511 1510 1508 1506 1503 1500 1497 1496 1495 1493 1491 1489 1488 1485 1482 1479 1477 1475 1472 1469 1466 1464 1462 1460 1458 1456 1454 1452 1451 1451 1452 1452 1453 1455 1456 1457 1458 1460 1461 1463 1465 1468 1470
1527 1528 1528 1529 1529 1528 1529 1528 1528 1528 1528 1528 1527 1527 1527 1527 1527 1527 1526 1525 1524 1523 1523 1523 1522 1522 1522 1521 1521 1521 1520 1519 1518 1517 1516 1515 1514 1513 1512 1511 1511 1510 1508 1507 1505 1503 1501 1498 1496 1493 1491 1490 1488 1486 1485 1483 1479 1475 1472 1469 1467 1466 1463 1459 1457 1456 1454 1451 1449 1448 1447 1446 1446 1447 1448 1449 1450 1452 1453 1455 1456 1458 1460 1463 1465
1526 1527 1526 1527 1527 1527 1527 1527 1527 1527 1527 1526 1526 1526 1526 1526 1525 1524 1523 1522 1521 1521 1520 1520 1520 1519 1519 1519 1518 1518 1517 1516 1515 1514 1513 1512 1511 1510 1509 1509 1508 1506 1505 1503 1502 1500 1498 1496 1494 1491 1488 1487 1485 1483 1482 1480 1477 1474 1470 1465 1460 1460 1459 1455 1452 1450 1449 1447 1444 1443 1442 1441 1441 1441 1442 1443 1445 1446 1448 1450 1451 1453 1455 1458 1460
1524 1525 1525 1525 1525 1525 1525 1525 1525 1525 1524 1524 1524 1524 1524 1524 1523 1522 1521 1520 1519 1519 1518 1518 1517 1517 1516 1516 1515 1515 1515 1514 1513 1512 1511 1510 1509 1507 1506 1506 1505 1503 1501 1500 1498 1497 1495 1493 1491 1489 1486 1484 1482 1480 1478 1476 1473 1471 1470 1465 1458 1454 1453 1450 1447 1446 1443 1441 1439 1437 1436 1436 1436 1436 1437 1438 1439 1441 1443 1444 1446 1448 1450 1453 1455
1522 1523 1523 1523 1523 1524 1524 1523 1523 1523 1522 1522 1522 1522 1522 1522 1521 1521 1519 1518 1517 1517 1516 1515 1515 1514 1513 1513 1512 1512 1512 1511 1510 1509 1508 1507 1506 1504 1504 1503 1501 1499 1498 1497 1495 1494 1492 1490 1488 1486 1484 1482 1479 1477 1475 1473 1470 1467 1466 1463 1457 1452 1449 1445 1442 1441 1440 1436 1434 1431 1431 1431 1431 1431 1432 1432 1434 1436 1438 1439 1441 1443 1445 1448 1450
1520 1520 1521 1521 1522 1522 1522 1521 1521 1520 1520 1519 1519 1519 1520 1520 1519 1518 1517 1516 1515 1515 1514 1513 1512 1512 1511 1510 1510 1509 1509 1508 1507 1506 1505 1505 1503 1502 1501 1499 1498 1496 1495 1494 1492 1491 1489 1487 1485 1483 1481 1478 1477 1475 1471 1469 1467 1464 1461 1459 1454 1449 1445 1440 1434 1433 1435 1433 1429 1426 1425 1426 1426 1426 1426 1427 1428 1430 1432 1433 1435 1438 1440 1443 1445
1518 1518 1519 1520 1520 1520 1520 1519 1519 1518 1517 1517 1516 1517 1517 1517 1517 1516 1514 1514 1513 1512 1512 1511 1510 1509 1508 1508 1507 1506 1505 1504 1504 1503 1502 1501 1500 1499 1498 1497 1495 1494 1492 1491 1489 1488 1486 1484 1482 1480 1478 1475 1473 1472 1469 1465 1463 1461 1458 1455 1451 1446 1442 1437 1430 1426 1427 1429 1426 1421 1419 1420 1421 1420 1420 1421 1423 1424 1426 1428 1430 1433 1435 1438 1441
1516 1516 1517 1518 1518 1519 1518 1517 1516 1516 1515 1515 1514 1514 1514 1514 1513 1512 1512 1511 1511 1510 1509 1508 1507 1507 1506 1505 1504 1503 1502 1501 1500 1499 1499 1498 1497 1496 1495 1494 1493 1491 1490 1488 1486 1485 1483 1481 1479 1477 1475 1472 1470 1469 1467 1463 1460 1458 1455 1452 1448 1444 1439 1435 1429 1422 1421 1424 1422 1417 1412 1413 1415 1415 1413 1415 1418 1419 1420 1422 1425 1428 1430 1433 1436
1514 1514 1515 1516 1516 1516 1515 1514 1514 1513 1513 1513 1512 1512 1512 1511 1510 1509 1509 1508 1508 1507 1507 1506 1505 1504 1503 1502 1501 1500 1499 1498 1497 1496 1495 1494 1494 1493 1492 1491 1490 1489 1487 1486 1484 1482 1481 1478 1476 1474 1472 1470 1467 1466 1464 1461 1457 1454 1451 1447 1443 1439 1435 1430 1425 1419 1416 1418 1417 1412 1407 1406 1409 1409 1407 1409 1412 1414 1415 1417 1419 1422 1425 1427 1430
1511 1512 1512 1513 1513 1513 1513 1512 1512 1511 1511 1510 1510 1509 1509 1508 1508 1507 1506 1506 1505 1504 1504 1503 1502 1501 1500 1499 1498 1497 1496 1495 1493 1493 1492 1491 1490 1489 1488 1488 1487 1486 1484 1483 1482 1480 1478 1476 1473 1471 1469 1468 1465 1462 1461 1459 1455 1451 1447 1442 1437 1433 1428 1424 1419 1414 1411 1411 1411 1408 1401 1399 1403 1403 1400 1403 1407 1408 1410 1412 1414 1417 1419 1422 1425
1508 1509 1510 1511 1511 1511 1510 1510 1509 1509 1509 1509 1508 1507 1506 1505 1505 1504 1503 1503 1502 1501 1501 1500 1499 1498 1497 1496 1495 1494 1493 1492 1491 1490 1489 1488 1487 1486 1485 1484 1483 1482 1481 1480 1479 1477 1474 1472 1470 1468 1466 1465 1463 1460 1458 1456 1453 1449 1445 1440 1433 1428 1422 1416 1411 1407 1404 1403 1405 1403 1396 1393 1397 1397 1394 1398 1402 1403 1405 1407 1409 1411 1414 1416 1420
1506 1507 1508 1508 1508 1508 1508 1507 1507 1507 1507 1506 1505 1504 1503 1503 1502 1501 1501 1500 1499 1498 1497 1497 1496 1495 1494 1493 1492 1491 1490 1489 1488 1487 1486 1485 1484 1483 1482 1481 1480 1479 1478 1477 1476 1473 1471 1469 1467 1465 1463 1461 1460 1458 1455 1453 1450 1446 1441 1435 1429 1424 1417 1410 1404 1399 1396 1395 1396 1396 1391 1388 1391 1391 1389 1393 1397 1398 1399 1402 1403 1406 1409 1411 1415
1504 1505 1505 1506 1506 1506 1505 1505 1504 1504 1504 1504 1503 1502 1501 1500 1499 1499 1498 1497 1496 1495 1494 1494 1493 1493 1492 1491 1489 1488 1487 1486 1485 1484 1483 1482 1481 1480 1479 1478 1476 1475 1474 1474 1472 1470 1468 1466 1464 1462 1460 1459 1457 1454 1452 1450 1447 1443 1436 1429 1424 1419 1414 1406 1399 1392 1388 1387 1387 1387 1385 1383 1385 1385 1385 1388 1391 1392 1394 1396 1398 1401 1403 1406 1410
1501 1502 1503 1503 1503 1503 1503 1502 1502 1501 1501 1501 1500 1499 1499 1498 1497 1496 1495 1494 1493 1492 1492 1491 1491 1490 1490 1489 1487 1485 1484 1483 1482 1481 1480 1479 1478 1477 1476 1475 1473 1472 1471 1470 1468 1466 1465 1463 1461 1459 1457 1456 1454 1451 1449 1447 1444 1440 1433 1426 1420 1414 1409 1402 1394 1387 1380 1377 1378 1380 1379 1377 1379 1381 1381 1383 1385 1386 1388 1391 1394 1396 1399 1401 1405
1498 1499 1499 1500 1500 1500 1500 1500 1499 1499 1499 1498 1497 1496 1496 1495 1494 1493 1492 1491 1490 1490 1489 1488 1488 1488 1487 1486 1485 1483 1481 1480 1479 1478 1477 1476 1475 1475 1474 1472 1470 1469 1468 1466 1464 1462 1461 1459 1458 1456 1454 1453 1451 1448 1445 1442 1440 1436 1431 1424 1417 1411 1404 1397 1390 1383 1374 1367 1368 1373 1372 1371 1373 1375 1376 1378 1379 1380 1384 1387 1390 1392 1394 1397 1400